Regional Weather Roundup
Issued by NWS

Home | Current Version | Previous Version | Text Only | Print | Product List | Glossary On
Versions: 1 2 3 4 5 6 7 8 9 10 11 12 13 14 15 16 17 18 19 20 21 22 23 24 25 26 27 28 29 30 31 32 33 34 35 36 37 38 39 40 41 42 43 44 45 46 47 48 49 50
000
ASUS43 KLOT 271309
RWRIL

ILLINOIS REGIONAL WEATHER ROUNDUP
NATIONAL WEATHER SERVICE CHICAGO/ROMEOVILLE IL
800 AM CDT THU JUL 27 2017

NOTE: "FAIR" INDICATES FEW OR NO CLOUDS BELOW 12,000 FEET WITH NO
SIGNIFICANT WEATHER AND/OR OBSTRUCTIONS TO VISIBILITY.

* THESE STATIONS ARE NOT UNDER NWS QUALITY CONTROL. THEY ALSO MAY NOT
  REPORT WEATHER SUCH AS PRECIPITATION OR FOG.

ILZ001-002-007-009-015-016-024-271400-
NORTHWEST ILLINOIS

CITY           SKY/WX    TMP DP  RH WIND       PRES   REMARKS
MOLINE         CLOUDY    73  69  87 NE5       29.96R
STERLING*      CLOUDY    73  72  96 NE6       29.95S
SAVANNA*       CLOUDY    72  71  95 NE6       29.96S
$$

ILZ003-004-008-010-011-017-018-271400-
NORTH CENTRAL ILLINOIS

CITY           SKY/WX    TMP DP  RH WIND       PRES   REMARKS
ROCKFORD       CLOUDY    75  70  84 NE12      29.96F HAZE
FREEPORT*      PTSUNNY   71  69  95 NE8       29.98F
ROCHELLE*      PTSUNNY   72  71  97 N5        29.95S FOG
DE KALB*       CLOUDY    73  72  97 NE6       29.96S FOG
PERU*          CLOUDY    72  70  93 N5        29.95R
$$

ILZ005-006-012>014-019>023-271400-
NORTHEAST ILLINOIS

CITY           SKY/WX    TMP DP  RH WIND       PRES   REMARKS
CHICAGO-OHARE  PTSUNNY   77  69  76 N8        29.93S
CHICAGO-MIDWAY PTSUNNY   76  71  85 NW6       29.93R
AURORA         SUNNY     74  71  91 N7        29.94S
LANSING*       MOSUNNY   75  71  88 W5        29.93R FOG
JOLIET*        CLOUDY    76  73  90 NE5       29.93S
WAUKEGAN       MOSUNNY   74  71  91 N8        29.94S
DUPAGE AIRPORT SUNNY     74  72  93 NE7       29.93F FOG
KANKAKEE*      CLOUDY    71  71  98 CALM      29.95S
WHEELING       PTSUNNY   74  72  93 N6        29.95S
MORRIS*        CLOUDY    73  71  93 CALM      29.93S
ROMEOVILLE*    CLOUDY    74  69  84 NE7       29.93S
NORTHERLY ISL    N/A     75  70  84 N6          N/A
$$

LMZ740>746-271400-
SOUTHERN LAKE MICHIGAN

STATION/POSITION SKY/WX   TEMP    WIND        PRES    VSBY  WAVE
                          AIR SEA DIR/SP/G                  HT/PER
                          (F)     (DEG/KT/KT) (MB)    (MI)  (FT/S)
SOUTHERN BUOY              71 71   10/  4/  6 1013.7          0
WILMETTE HARBOR            71 72  340/ 12/ 16   N/A           1/ 2
HARRISON CRIB              73     330/  9/ 10   N/A
BURNHAM HARBOR             76                   N/A
CALUMET HARBOR             75     330/  5/  7 1012.9R
BURNS HARBOR               74        CALM     1013.9R
MICHIGAN CITY              73     250/  2/  3   N/A
MICHIGAN CITY 6N           74 75  310/  2/  2   N/A           0
ST. JOSEPH                 74 74  130/  2/  2 1012.9          0
$$

ILZ025>027-034>036-040-047-049-050-058-095>099-271400-
WEST-CENTRAL ILLINOIS

CITY           SKY/WX    TMP DP  RH WIND       PRES   REMARKS
QUINCY         CLOUDY    75  73  93 NE6       29.94S
GALESBURG*     CLOUDY    72  71  98 N5        29.97S
MACOMB*        CLOUDY    73  73  99 CALM      29.97S FOG
JACKSONVILLE*  CLOUDY    74  73  97 CALM      29.94R
PITTSFIELD*    DRIZZLE   75  74  99 SW7       29.95S
$$

ILZ028>032-037-038-041>044-048-051>054-059>061-271400-
CENTRAL ILLINOIS

CITY           SKY/WX    TMP DP  RH WIND       PRES   REMARKS
PONTIAC        CLOUDY    73  73  98 W3        29.95R FOG
BLOOMINGTON    LGT RAIN  73  72  96 CALM      29.96S FOG
DECATUR        CLOUDY    74  72  93 SW10      29.95R
PEORIA         CLOUDY    74  73  97 CALM      29.94S
LACON*         CLOUDY    73  73  99 CALM      29.94R
LINCOLN*       CLOUDY    75  75 100 CALM      29.94S
SPRINGFIELD    CLOUDY    76  75  97 SW3       29.94S
TAYLORVILLE    DRIZZLE   72  72  99 W7        29.95S
$$

ILZ033-039-045-046-055>057-062-063-271400-
EAST-CENTRAL ILLINOIS

CITY           SKY/WX    TMP DP  RH WIND       PRES   REMARKS
CHAMPAIGN      CLOUDY    74  72  93 SW8       29.95R
RANTOUL*       CLOUDY    75  74  97 W6        29.95R
MATTOON        LGT RAIN  73  73 100 S7        29.94F
PARIS*         DRIZZLE   73  73  98 SW8       29.96S
$$

ILZ079-100>102-271400-
SOUTHWEST ILLINOIS

CITY           SKY/WX    TMP DP  RH WIND       PRES   REMARKS
ALTON          LGT RAIN  73  73 100 CALM      29.97R
BELLEVILLE     LGT RAIN  74  73  97 SW5       29.98R
CAHOKIA*       LGT RAIN  76  74  93 S5        29.97R
SPARTA*        LGT RAIN  74  74  99 SE3       29.99R
$$

ILZ064>066-069>071-074>076-080>082-084>086-088>090-092>094-271400-
SOUTH-CENTRAL ILLINOIS

CITY           SKY/WX    TMP DP  RH WIND       PRES   REMARKS
CARBONDALE     CLOUDY    79  78  97 CALM      29.96S HX  83
CAIRO*         CLOUDY    79  75  89 SW7       29.97S HX  83
EFFINGHAM*     LGT RAIN  74  74 100 SW5       29.98R
MARION         CLOUDY    81  81 100 NW5       29.98R HX  91
MT. VERNON     LGT RAIN  74  73  97 CALM      29.97S FOG
CENTRALIA*     LGT RAIN  74  74 100 CALM      29.97R
SALEM*         LGT RAIN  75  73  94 CALM      29.97R
METROPOLIS*    CLOUDY    80  75  86 SW7       29.98S HX  84
$$

ILZ067-068-072-073-078-083-087-091-271400-
SOUTHEAST ILLINOIS

CITY           SKY/WX    TMP DP  RH WIND       PRES   REMARKS
LAWRENCEVILLE  CLOUDY    74  32  21 W3        29.97R
FLORA*         DRIZZLE   75  74  95 SW6       29.97R
FAIRFIELD*     RAIN      73  73 100 CALM      29.96S
HARRISBURG*    CLOUDY    78  76  94 S3        29.97S HX  80
ROBINSON*      CLOUDY    72  72  99 CALM      29.97S
CARMI*         DRIZZLE   73  73 100 CALM      29.96F
$$

ABBREVIATIONS USED IN REMARKS
   TC - TEMPERATURE IN CELSIUS
  WCI - WIND CHILL INDEX
   HX - HEAT INDEX
  VSB - VISIBILITY
$$




USA.gov is the U.S. government's official web portal to all federal, state and local government web resources and services.